Flag for U.S.A. Weather past 2 weeks in Salinas, California, U.S.A.

Now
73 °F

Sunny.


Feels Like: 76 °F
Forecast: 59 / 78 °F
Wind: 15 mph from West

Location: Salinas Municipal Airport

Current Time: Jul 23, 2014 at 6:03:19 PM

Latest Report: Jul 23, 2014 at 4:53 PM


Visibility: 10 mi

Pressure: 30.09 "Hg

Humidity: 64%

Dew point: 60 °F

Location of SalinasLocation

Historic Weather in Salinas — Graph

°F

Salinas temperature yesterday

Maximum temperature yesterday: 71 °F (at 4:53 PM)
Minimum temperature yesterday: 61 °F (at 2:53 AM)
Average temperature yesterday: 65 °F

Past Weeks' High & Low Weather Summary

 TemperatureHumidityPressure
High77 °F (Jul 23, 11:53 AM)97% (Jul 13, 5:53 AM)30.17 "Hg (Jul 13, 5:53 AM)
Low56 °F (Jul 13, 4:53 AM)48% (Jul 23, 11:53 AM)29.89 "Hg (Jul 14, 3:53 AM)
Average64 °F76%30.02 "Hg
* Reported Jul 8 4:53 PM — Jul 23 4:53 PM, Salinas, Weather by CustomWeather, © 2014

Note: Actual official high and low records may vary slightly from our data, if they occured in-between our weather recording intervals... More about our weather records

Advertising

Salinas weather history for previous 24 hours

 ConditionsComfort  
Time TempWeatherWind HumidityBarometerVisibility
4:53 PM
Jul 23
73 °FSunny.15 mph64%30.09 "Hg10 mi
3:53 PM75 °FSunny.15 mph60%30.10 "Hg10 mi
2:53 PM76 °FSunny.14 mph56%30.11 "Hg10 mi
1:53 PM77 °FSunny.14 mph52%30.11 "Hg10 mi
12:53 PM77 °FSunny.9 mph48%30.13 "Hg10 mi
11:53 AM77 °FSunny.9 mph48%30.14 "Hg10 mi
10:53 AM74 °FSunny.3 mph52%30.16 "Hg10 mi
9:53 AM70 °FSunny.5 mph59%30.16 "Hg10 mi
8:53 AM67 °FSunny.3 mph68%30.17 "Hg10 mi
7:53 AM61 °FSunny.No wind81%30.16 "Hg10 mi
6:53 AM58 °FClear.No wind81%30.15 "Hg10 mi
5:53 AM58 °FClear.3 mph81%30.14 "Hg10 mi
3:53 AM60 °FClear.No wind80%30.13 "Hg10 mi
2:53 AM61 °FClear.No wind83%30.14 "Hg10 mi
1:53 AM62 °FClear.3 mph80%30.14 "Hg10 mi
12:53 AM62 °FClear.3 mph80%30.14 "Hg10 mi
10:53 PM
Jul 22
63 °FClear.3 mph78%30.15 "Hg10 mi
9:53 PM65 °FClear.3 mph78%30.14 "Hg10 mi
8:53 PM66 °FSunny.7 mph75%30.13 "Hg10 mi
7:53 PM68 °FSunny.10 mph68%30.11 "Hg10 mi
6:53 PM70 °FSunny.12 mph64%30.10 "Hg10 mi
Weather by CustomWeather, © 2014

See weather overviewHow to use our weather pages